{"data":{"norad_id":59803,"epoch":"2026-09-21T03:22:06.481920Z","epoch_age_seconds":119160,"freshness":"FRESH","line1":"1 59803U 24093X   26264.14035280  .00000224  00000+0  17644-4 0  9999","line2":"2 59803  42.9979 185.3855 0000965 276.0452  84.0290 15.27580246132658","mean_motion":15.27580246,"eccentricity":9.65e-5,"inclination_deg":42.9979,"raan_deg":185.3855,"arg_perigee_deg":276.0452,"mean_anomaly_deg":84.029,"bstar":1.7644e-5,"rev_number":13265,"period_min":94.266733533028,"perigee_km":482.38625504007,"apogee_km":483.71046381444,"semimajor_km":6861.1853594273,"source":"CELESTRAK","updated_at":"2026-09-22T09:00:49.075182Z"}}